Change the Weather History Date:

Saturday, November 26, 2011

  Actual Average Record
Temperature  
Mean Temperature 62 °F 44 °F  
Max Temperature 70 °F 53 °F 74 °F (1965)
Min Temperature 53 °F 34 °F 13 °F (1977)
Degree Days  
Heating Degree Days 3 21  
Month to date heating degree days 319 420  
Since 1 July heating degree days 587 687  
Cooling Degree Days 0 0  
Month to date cooling degree days 5 0  
Year to date cooling degree days 1703 1538  
Growing Degree Days 12 (Base 50)    
Moisture  
Dew Point 52 °F    
Average Humidity 73    
Maximum Humidity 93    
Minimum Humidity 53    
Precipitation  
Precipitation 0.71 in 0.15 in 2.96 in (1978)
Month to date precipitation 8.18 3.65  
Year to date precipitation 65.74 43.84  
Snow  
Snow 0.00 in 0.00 in 0.20 in (2002)
Month to date snowfall 0.0 0.0  
Since 1 July snowfall 0.0 0.1  
Since 1 September snowfall 0.0 0.1  
Snow Depth 0.00 in    
Sea Level Pressure  
Sea Level Pressure 29.93 in    
Wind  
Wind Speed 10 mph (SSW)    
Max Wind Speed 20 mph    
Max Gust Speed 25 mph    
Visibility 8 miles    
Events Rain    
T = Trace of Precipitation, MM = Missing Value Source: NWS Daily Summary

Daily Weather History Graph

Daily Weather History Graph

Search for Another Location

Airport or City:

Trip Planner

Search our weather history database for the weather conditions in past years. The results will help you decide how hot, cold, wet, or windy it might be!

Date:

Astronomy

Nov. 26, 2011 Rise Set
Actual Time 6:44 AM CST 4:39 PM CST
Civil Twilight 6:16 AM CST 5:07 PM CST
Nautical Twilight 5:44 AM CST 5:39 PM CST
Astronomical Twilight 5:13 AM CST 6:11 PM CST
Moon 8:14 AM CST (11/26) 6:11 PM CST (11/26)
Length of Visible Light 10h 51m
Length of Day
9h 54m
Waxing Crescent, 3% of the Moon is Illuminated
Nov 26
Waxing Crescent
Dec 2
First Quarter
Dec 10
Full
Dec 17
Last Quarter
Dec 24
New

Hourly Weather History & Observations

Time (CST) Temp. Dew Point Humidity Pressure Visibility Wind Dir Wind Speed Gust Speed Precip Events Conditions
12:53 AM 53.1 °F 39.0 °F 59% 30.06 in 10.0 mi South 8.1 mph - N/A   Partly Cloudy
1:53 AM 55.0 °F 41.0 °F 59% 30.07 in 10.0 mi South 8.1 mph - N/A   Mostly Cloudy
2:53 AM 55.0 °F 42.1 °F 62% 30.06 in 10.0 mi South 10.4 mph - N/A   Scattered Clouds
3:53 AM 55.9 °F 44.1 °F 64% 30.04 in 10.0 mi South 12.7 mph - N/A   Mostly Cloudy
4:53 AM 57.0 °F 45.0 °F 64% 30.04 in 10.0 mi South 10.4 mph - N/A   Overcast
5:53 AM 57.0 °F 45.0 °F 64% 30.03 in 10.0 mi South 10.4 mph - N/A   Mostly Cloudy
6:53 AM 57.9 °F 46.9 °F 67% 30.04 in 10.0 mi South 11.5 mph - 0.00 in   Overcast
7:53 AM 57.0 °F 48.0 °F 72% 30.04 in 10.0 mi South 17.3 mph 24.2 mph N/A   Overcast
8:53 AM 57.2 °F 48.2 °F 72% 30.02 in 10.0 mi SSE 9.2 mph - N/A   Overcast
9:53 AM 60.1 °F 50.0 °F 69% 30.01 in 10.0 mi South 11.5 mph 18.4 mph N/A   Overcast
10:53 AM 63.0 °F 50.0 °F 63% 29.98 in 10.0 mi South 12.7 mph 21.9 mph N/A   Overcast
11:53 AM 66.0 °F 52.0 °F 60% 29.94 in 10.0 mi South 13.8 mph 24.2 mph N/A   Overcast
12:53 PM 70.0 °F 52.0 °F 53% 29.90 in 10.0 mi South 11.5 mph 20.7 mph N/A   Mostly Cloudy
1:53 PM 70.0 °F 52.0 °F 53% 29.87 in 10.0 mi South 15.0 mph 21.9 mph N/A   Overcast
2:53 PM 69.1 °F 52.0 °F 54% 29.86 in 10.0 mi South 10.4 mph 17.3 mph N/A   Overcast
3:53 PM 69.1 °F 52.0 °F 54% 29.85 in 10.0 mi South 11.5 mph - N/A   Overcast
4:53 PM 69.1 °F 52.0 °F 54% 29.83 in 10.0 mi South 11.5 mph 19.6 mph N/A   Overcast
5:53 PM 68.0 °F 53.6 °F 60% 29.84 in 10.0 mi South 13.8 mph 20.7 mph N/A   Overcast
6:40 PM 60.8 °F 57.2 °F 88% 29.87 in 4.0 mi West 13.8 mph 24.2 mph 0.01 in Rain Rain
6:50 PM 60.8 °F 57.2 °F 88% 29.87 in 2.5 mi West 12.7 mph 24.2 mph 0.09 in Rain Rain
6:53 PM 61.0 °F 57.9 °F 90% 29.87 in 3.0 mi West 11.5 mph 24.2 mph 0.10 in Rain Rain
7:12 PM 60.8 °F 57.2 °F 88% 29.88 in 10.0 mi West 9.2 mph - 0.01 in Rain Light Rain
7:26 PM 60.8 °F 57.2 °F 88% 29.89 in 1.8 mi West 13.8 mph - 0.05 in Rain Heavy Rain
7:32 PM 59.0 °F 57.2 °F 94% 29.89 in 2.0 mi West 11.5 mph - 0.11 in Rain Heavy Rain
7:39 PM 59.0 °F 57.2 °F 94% 29.88 in 3.0 mi West 8.1 mph - 0.14 in Rain Rain
7:53 PM 59.0 °F 57.0 °F 93% 29.88 in 3.0 mi SW 4.6 mph - 0.18 in Rain Rain
8:53 PM 59.0 °F 55.9 °F 90% 29.87 in 5.0 mi South 3.5 mph - 0.11 in Rain Rain
9:53 PM 59.0 °F 57.2 °F 94% 29.88 in 4.0 mi South 4.6 mph - N/A Rain Rain
10:53 PM 57.9 °F 55.9 °F 93% 29.86 in 6.0 mi South 4.6 mph - 0.12 in Rain Light Rain
11:53 PM 57.0 °F 55.0 °F 93% 29.85 in 5.0 mi SSW 3.5 mph - 0.07 in Rain Rain